Lexington Weather

Lexington, Massachusetts, USA

32°F
11/15/2019 2:04am 
  • Lexington Conditions: Mostly cloudy
  • Temperature: 31.5°F / -0.3°CWarmer 0.6°F than last hour.
  • Dew Point: 29.1°FIncreased 1.2°Fsince last hour.
  • Relative Humidity: 91%Increased 3.0% since last hour.
  • Wind: Wind from SSW SSW 1 mph, 10-min avg: Calm, gust: 3 mph
  • Barometer: 30.19 in Steady
  • Visibility: 10 miles
  • Snow Today: 0.0 in
  •   

Regional Weather Roundup
for Boston / Norton, MA

        
000
ASUS41 KBOX 141210
RWRBOX

REGIONAL WEATHER ROUNDUP
NATIONAL WEATHER SERVICE BOSTON/NORTON MA
700 AM EST THU NOV 14 2019

NOTE:  "FAIR" INDICATES FEW OR NO CLOUDS BELOW 12,000 FEET WITH NO 
SIGNIFICANT WEATHER AND/OR OBSTRUCTIONS TO VISIBILITY.

MAZALL-141300-
EASTERN MASSACHUSETTS
  
CITY           SKY/WX    TMP DP  RH WIND       PRES   REMARKS
BOSTON         MOCLDY    25   9  50 N5        30.49S WCI  19          
6HR MIN TEMP:  23; 6HR MAX TEMP:  25;                                

BEVERLY        FAIR      18  11  74 CALM      30.48S                  
LAWRENCE       FAIR      18  11  74 CALM      30.50S                  
BEDFORD        FAIR      16  11  80 CALM      30.48R                  
BLUE HILL        N/A     18   5  57 NW3       30.43S                  
NORWOOD        FAIR      17  10  74 CALM      30.49S                  
MARSHFIELD     FAIR      21  12  68 W5        30.49S WCI  15          
PLYMOUTH       FAIR      18  12  77 CALM      30.48S                  
TAUNTON        FAIR      16  11  80 CALM      30.48F                  
NEW BEDFORD    FAIR      18  11  74 CALM      30.48S                  
$$

MAZALL-141300-
CAPE COD AND THE ISLANDS
  
CITY           SKY/WX    TMP DP  RH WIND       PRES   REMARKS
FALMOUTH       CLEAR     18  10  73 CALM      30.48S                  
HYANNIS        FAIR      20  14  77 CALM      30.47S                  
CHATHAM        FAIR      23  19  85 CALM      30.49S                  
PROVINCETOWN   FAIR      19  13  77 E3        30.49R                  
NANTUCKET      FAIR      24  18  77 N3        30.48S                  
MARTHAS VNYRD  FAIR      14  11  87 CALM      30.48S                  
$$
 
MAZALL-141300-
CENTRAL AND WESTERN MASSACHUSETTS
  
CITY           SKY/WX    TMP DP  RH WIND       PRES   REMARKS
WORCESTER      FAIR      17   9  70 SE5       30.40F WCI  10          
6HR MIN TEMP:  15; 6HR MAX TEMP:  18;                                

FITCHBURG      FAIR      18  11  74 CALM      30.47S                  
ORANGE         FAIR      16  11  80 CALM      30.44S                  
SPRINGFIELD    MOCLDY    13  10  85 CALM      30.44S                  
WESTFIELD      FAIR      12   8  84 CALM      30.45S                  
NORTH ADAMS    FAIR      21   5  50 E9G17     30.38S WCI  11          
PITTSFIELD     MOCLDY    16   9  74 VRB3      30.34S                  
$$
 
RIZALL-141300-
RHODE ISLAND
  
CITY           SKY/WX    TMP DP  RH WIND       PRES   REMARKS
PROVIDENCE     MOCLDY    20  13  74 NW3       30.49S                  
6HR MIN TEMP:  18; 6HR MAX TEMP:  21;                                

NEWPORT        FAIR      22  13  68 CALM      30.47S                  
BLOCK ISLAND   FAIR      25  18  74 CALM      30.47S                  
SMITHFIELD     FAIR      15  10  80 CALM      30.45F                  
WESTERLY       FAIR      21  11  65 N6        30.48S WCI  13          
$$
 
CTZALL-141300-
CONNECTICUT
  
CITY           SKY/WX    TMP DP  RH WIND       PRES   REMARKS
BRADLEY INTL   MOCLDY    16  10  77 CALM      30.46S                  
6HR MIN TEMP:  15; 6HR MAX TEMP:  21;                                

HARTFORD       FAIR      20  13  74 CALM      30.48R                  
BRIDGEPORT     FAIR      25  11  55 NE8       30.44F WCI  16          
DANBURY        FAIR      19  11  70 CALM      30.43S                  
GROTON         FAIR      23  12  62 N6        30.47S WCI  16          
NEW HAVEN      FAIR      24  11  57 N6        30.45S WCI  17          
CHESTER        FAIR      21   9  58 CALM      30.44R                  
MERIDEN        FAIR      18  13  80 W3        30.46S                  
WILLIMANTIC    FAIR      15  12  88 CALM      30.48S                  
OXFORD         FAIR      19  10  68 E3        30.41R                  
$$

MEZ002-015-021-024-NHZ003-005-008-011-012-014-VTZ005-008-141300-
NORTHERN NEW ENGLAND
  
CITY           SKY/WX    TMP DP  RH WIND       PRES   REMARKS
PORTLAND ME    FAIR      14   9  80 NW5       30.49S WCI   6          
6HR MIN TEMP:  13; 6HR MAX TEMP:  16;                                

BANGOR ME      MOCLDY    10   7  87 CALM      30.49S                  
CONCORD NH     FAIR      13   9  84 CALM      30.46S                  
MANCHESTER NH  MOCLDY    18  12  77 CALM      30.46R                  
NASHUA NH      FAIR      15  12  88 CALM      30.48R                  
PORTSMOUTH NH  MOCLDY    16  12  83 CALM      30.47R                  
JAFFREY NH     FAIR      16  11  80 CALM      30.39S                  
KEENE NH       FAIR      14  13  95 CALM      30.44R                  
BURLINGTON VT  MOCLDY    20   8  60 S5        30.34F WCI  13          
MT. WASHINGTON MOCLDY     5  -6  61 SW26G38     N/A  WCI -18          
$$

NYZ052-076-141300-
EASTERN NEW YORK
  
CITY           SKY/WX    TMP DP  RH WIND       PRES   REMARKS
ALBANY         CLOUDY    22   9  57 S7        30.38F WCI  13          
6HR MIN TEMP:  20; 6HR MAX TEMP:  22;                                

NEW YORK CITY  MOCLDY    30  12  47 S3        30.44R                  
6HR MIN TEMP:  29; 6HR MAX TEMP:  31;                                

$$
 
ANZALL-141300-
MARINE OBSERVATIONS
  
STATION/POSITION TIME  TEMP    WIND        PRES    VSBY  WAVE
                       AIR SEA DIR/SP/G                  HT/PER
                 (UTC) (F)     (DEG/KT/KT) (MB)    (MI)  (FT/S)
BOSTON BUOY      1150   29 52  350/  2/  4 1031.9R         2/ 5
BUZZARDS BAY     1100   29      40/  5/  7 1032.6R
NANTUCKET SOUND  1140      51                N/A           1
MASS BAY-STELLWA 1104   27 51  290/  8/ 10 1032.1R  1 7/8  2/ 5
ISLE OF SHOALS   1100   26     330/  9/ 10 1031.6S
S OF BLOCK IS    1200      58                N/A           2/13
$$

......................KEY.........................
  SKY/WX - SKY CONDITION/PRESENT WEATHER
  TMP    - TEMPERATURE IN FAHRENHEIT
  DWPT   - DEWPOINT IN FAHRENHEIT
  RH     - RELATIVE HUMIDITY IN PERCENT
  WIND   - DIRECTION AND SPEED IN MPH
  PRES   - MEAN SEA LEVEL PRESSURE IN INCHES OF HG
  WCI    - WIND CHILL INDEX
  VSB    - VISIBILITY IN MILES
  HX     - HEAT INDEX
  TC     - TEMPERATURE IN CELSIUS
  VRB    - VARIABLE WIND DIRECTION
  N/A    - NOT AVAILABLE
  
      

Other recent Regional Weather Roundups

Fri Nov 15, 2:00am

Fri Nov 15, 1:10am

Fri Nov 15, 1:00am

Fri Nov 15, 12:10am

Fri Nov 15, 12:00am

Thu Nov 14, 11:10pm

Thu Nov 14, 11:00pm

Thu Nov 14, 10:10pm

Thu Nov 14, 10:00pm

Thu Nov 14, 9:10pm

Thu Nov 14, 9:00pm

Thu Nov 14, 8:10pm

Thu Nov 14, 8:00pm

Thu Nov 14, 7:10pm

Thu Nov 14, 7:00pm

Thu Nov 14, 6:10pm

Thu Nov 14, 6:01pm

Thu Nov 14, 5:10pm

Thu Nov 14, 5:00pm

Thu Nov 14, 4:10pm

Thu Nov 14, 4:00pm

Thu Nov 14, 3:10pm

Thu Nov 14, 3:00pm

Thu Nov 14, 2:10pm

Thu Nov 14, 2:00pm

Thu Nov 14, 1:10pm

Thu Nov 14, 1:00pm

Thu Nov 14, 12:10pm

Thu Nov 14, 12:01pm

Thu Nov 14, 11:10am

Thu Nov 14, 11:00am

Thu Nov 14, 10:10am

Thu Nov 14, 10:01am

Thu Nov 14, 9:10am

Thu Nov 14, 9:00am

Thu Nov 14, 8:10am

Thu Nov 14, 8:00am

Thu Nov 14, 7:00am

Thu Nov 14, 6:10am

Thu Nov 14, 6:00am

Thu Nov 14, 5:10am

Thu Nov 14, 5:00am

Thu Nov 14, 4:10am

Thu Nov 14, 4:00am

Thu Nov 14, 3:10am

Thu Nov 14, 3:00am

Thu Nov 14, 2:10am

Thu Nov 14, 2:00am

Thu Nov 14, 1:10am

Thu Nov 14, 1:00am

Thu Nov 14, 12:10am

Thu Nov 14, 12:00am

Wed Nov 13, 11:10pm

Wed Nov 13, 11:00pm

Wed Nov 13, 10:10pm

Wed Nov 13, 10:00pm

Wed Nov 13, 9:10pm

Wed Nov 13, 9:00pm

Wed Nov 13, 8:10pm

Wed Nov 13, 8:00pm

Wed Nov 13, 7:10pm

Wed Nov 13, 7:00pm

Wed Nov 13, 6:10pm

Wed Nov 13, 6:01pm

Wed Nov 13, 5:10pm

Wed Nov 13, 5:00pm

Wed Nov 13, 4:10pm

Wed Nov 13, 4:00pm

Wed Nov 13, 3:10pm

Wed Nov 13, 3:01pm

Wed Nov 13, 2:10pm

Wed Nov 13, 2:01pm

Wed Nov 13, 1:10pm

Wed Nov 13, 1:00pm

Wed Nov 13, 12:10pm

Wed Nov 13, 12:01pm

Wed Nov 13, 11:10am

Wed Nov 13, 11:00am

Wed Nov 13, 10:10am

Wed Nov 13, 10:00am

Wed Nov 13, 9:10am

Wed Nov 13, 9:00am

Wed Nov 13, 8:10am

Wed Nov 13, 8:00am

Wed Nov 13, 7:10am

Wed Nov 13, 7:00am

Wed Nov 13, 6:10am

Wed Nov 13, 6:00am

Wed Nov 13, 5:10am

Wed Nov 13, 5:00am

Wed Nov 13, 4:10am

Wed Nov 13, 4:00am

Wed Nov 13, 3:10am

Wed Nov 13, 3:00am

Wed Nov 13, 2:10am

Wed Nov 13, 2:00am

Wed Nov 13, 1:10am

Wed Nov 13, 1:00am

Wed Nov 13, 12:10am

Wed Nov 13, 12:00am

Tue Nov 12, 11:10pm

Tue Nov 12, 11:00pm

Tue Nov 12, 10:10pm

Tue Nov 12, 10:00pm

Tue Nov 12, 9:10pm

Tue Nov 12, 9:00pm

Tue Nov 12, 8:10pm

Tue Nov 12, 8:00pm

Tue Nov 12, 7:10pm

Tue Nov 12, 7:01pm

Tue Nov 12, 6:10pm

Tue Nov 12, 6:01pm

Tue Nov 12, 5:10pm

Tue Nov 12, 5:01pm

Tue Nov 12, 4:10pm

Tue Nov 12, 4:01pm

Tue Nov 12, 3:10pm

Tue Nov 12, 3:00pm

Tue Nov 12, 2:10pm

Tue Nov 12, 2:00pm

Tue Nov 12, 1:10pm

Tue Nov 12, 1:00pm

Tue Nov 12, 12:10pm

Tue Nov 12, 12:00pm

Tue Nov 12, 11:10am

Tue Nov 12, 11:00am

Tue Nov 12, 10:10am

Tue Nov 12, 10:01am

Tue Nov 12, 9:10am

Tue Nov 12, 9:00am

Tue Nov 12, 8:10am

Tue Nov 12, 8:00am

Tue Nov 12, 7:10am

Tue Nov 12, 7:00am

Tue Nov 12, 6:10am

Tue Nov 12, 6:00am

Tue Nov 12, 5:10am

Tue Nov 12, 5:01am

Tue Nov 12, 4:10am

Tue Nov 12, 4:00am

Tue Nov 12, 3:10am

Tue Nov 12, 3:01am

Tue Nov 12, 2:10am

Meta data:

ID: b7cab896-253a-47d0-b8e4-7fbe67710509
Link: https://api.weather.gov/products/b7cab896-253a-47d0-b8e4-7fbe67710509